logo
Rechercher aéroport 
image banner adimage banner adimage banner ad
image banner ad

MRLI - La Ligia

Situé à Parrita, Costa Rica

ICAO - MRLI, IATA -

Données fournies par Airmate  

Information générale

Coordonnées: N9°30'32" W84°19'60"
Élévation : 16 feet MSL.
 
Voir autres Aéroports à Puntarenas

Données opérationnelles

Special qualification required
Heure actuelle UTC:
Heure actuelle locale:
Météo à : MRPV - Tobias Bolanos Intl ( 54 km )
METAR: MRPV 152000Z 09009KT 9999 FEW040 BKN180 23/18 A3002 NOSIG
TAF: TAF MRPV 151700Z 1518/1618 08010KT 9999 FEW040 TX27/1617Z TN19/1610Z TEMPO 1620/1623 31005KT
Voir NOTAMs / SUP AIP / TFR affectant cet aéroport [VIEW]
Fréquences de communication: [VIEW]

Pistes:

Identifiant RWYQFULongueur (ft)Largeur (ft)SurfaceLDA (ft)
02318233UNK
20318233UNK

Coordonnées de l'aéroport

Adresse: Parrita Costa Rica

Vue satellite de MRLI